[[{"header":{"parameterUnit":"m.s-1","parameterCategory":1,"la1":30.2991,"la2":30.254,"lo1":-89.0895,"lo2":-89.0444,"dy":0.0017,"dx":0.0017,"nx":28,"ny":28,"refTime":"2025-04-27T03:00:00:Z","depth":0,"parameterNumber":2,"parameterNumberName":"U-component_of_WINDS"},"data":[0,0,0,0,0,0,0,0,0,0,0,0,0,0,0,0,0,0,0,0,0,0,0,0,0,0,0,0,0,0,0,0,0,0,0,0,0,0,0,0,0,0,0,0,0,0,0,0,0,0,0,0,0,0,0,0,0,0,-1.7581,-1.758,0,-1.7507,-1.7506,-1.7505,-1.7468,-1.7468,-1.7468,-1.7469,-1.7392,-1.739,-1.7388,0,0,0,0,0,0,0,0,0,0,0,0,0,-1.7693,-1.7691,-1.7581,-1.758,-1.7579,-1.7507,-1.7506,-1.7505,-1.7468,-1.7468,-1.7469,-1.7469,-1.7392,-1.739,-1.7388,0,0,0,0,0,0,0,0,0,0,0,0,0,-1.7634,-1.769,-1.7581,-1.7552,-1.7549,-1.7507,-1.7506,-1.7505,-1.7468,-1.7468,-1.7469,-1.7469,-1.7393,-1.739,-1.7387,-1.7368,0,0,-1.7378,-1.7377,0,0,0,0,0,0,0,0,-1.7637,-1.763,-1.7558,-1.7554,-1.7551,-1.7497,-1.7517,-1.7459,-1.7468,-1.7499,-1.7469,-1.7469,-1.7427,-1.7421,-1.7407,-1.7365,-1.7361,-1.7378,-1.7376,-1.7374,-1.7374,0,0,0,0,0,0,0,-1.7641,-1.7633,-1.7552,-1.7557,-1.7552,-1.7544,-1.7535,-1.7506,-1.7464,-1.7496,-1.7494,-1.7485,-1.7425,-1.741,-1.7405,-1.736,-1.7378,-1.7375,-1.7373,-1.7372,-1.73,-1.73,0,0,0,0,0,0,-1.765,-1.7637,-1.7554,-1.7549,-1.7595,-1.7542,-1.7532,-1.7514,-1.7464,-1.7456,-1.7485,-1.7484,-1.7415,-1.7408,-1.7402,-1.7377,-1.7374,-1.7372,-1.737,-1.7301,-1.73,-1.73,0,0,0,0,0,0,-1.7653,-1.7643,-1.7557,-1.7592,-1.7581,-1.754,-1.752,-1.7513,-1.7498,-1.7456,-1.7448,-1.7478,-1.7415,-1.7406,-1.7377,-1.7374,-1.737,-1.7367,-1.7301,-1.7301,-1.73,-1.7327,0,0,0,0,0,0,-1.7656,-1.7644,-1.7636,-1.7592,-1.7579,-1.7533,-1.7519,-1.7511,-1.7493,-1.749,-1.7447,-1.7439,-1.7414,-1.7382,-1.7374,-1.737,-1.7365,-1.7301,-1.7301,-1.73,-1.7327,-1.7328,-1.733,0,0,0,0,0,-1.766,-1.7646,-1.7636,-1.7626,-1.7568,-1.7533,-1.7525,-1.7497,-1.7493,-1.7484,-1.7458,-1.7441,-1.7376,-1.7379,-1.737,-1.7365,-1.7301,-1.7301,-1.73,-1.7326,-1.7328,-1.733,0,0,0,0,0,0,-1.769,-1.764,-1.7628,-1.7599,-1.7571,-1.7527,-1.7516,-1.75,-1.7472,-1.747,-1.7436,-1.7427,-1.7401,-1.738,-1.7385,-1.7345,-1.7337,-1.7335,-1.7359,-1.7361,-1.7362,-1.7368,-1.7362,0,0,0,0,0,-1.7693,-1.7669,-1.7627,-1.7606,-1.7592,-1.7557,-1.754,-1.7521,-1.749,-1.7478,-1.7449,-1.742,-1.7393,-1.7376,-1.7349,-1.7324,-1.7314,-1.7316,-1.7317,-1.7319,-1.7317,-1.7304,-1.7305,-1.73,-1.73,-1.73,0,0,-1.77,-1.7669,-1.7656,-1.7611,-1.7587,-1.7563,-1.7547,-1.7522,-1.7504,-1.7474,-1.7445,-1.7423,-1.7389,-1.7362,-1.7349,-1.7344,-1.7317,-1.7319,-1.732,-1.7318,-1.7304,-1.7305,-1.7305,-1.73,-1.73,-1.73,0,0,-1.7699,-1.7674,-1.7654,-1.763,-1.7594,-1.7571,-1.7567,-1.7526,-1.751,-1.7481,-1.7459,-1.7437,-1.7391,-1.7368,-1.735,-1.7344,-1.7328,-1.7336,-1.7344,-1.7331,-1.7332,-1.7332,-1.733,-1.733,-1.7335,-1.7335,-1.7335,0,-1.7711,-1.7675,-1.7646,-1.7623,-1.7604,-1.7577,-1.7557,-1.7536,-1.7493,-1.7481,-1.7476,-1.7419,-1.7394,-1.7362,-1.7361,-1.7347,-1.7341,-1.734,-1.7334,-1.7334,-1.7334,-1.7332,-1.7331,-1.7336,-1.7336,-1.7336,-1.7336,0,-1.7692,-1.7667,-1.7656,-1.7616,-1.7596,-1.7574,-1.7543,-1.7527,-1.751,-1.7488,-1.7459,-1.7428,-1.7395,-1.7386,-1.7369,-1.7353,-1.7351,-1.7341,-1.7332,-1.7336,-1.7334,-1.7333,-1.7338,-1.7338,-1.7337,-1.7337,0,0,-1.7706,-1.7652,-1.7648,-1.7631,-1.759,-1.757,-1.7549,-1.7517,-1.7504,-1.7476,-1.7457,-1.7421,-1.7411,-1.7391,-1.7372,-1.7361,-1.7359,-1.7352,-1.7351,-1.7355,-1.7341,-1.7349,-1.7348,-1.7349,-1.7349,-1.7348,-1.7344,0,-1.77,-1.766,-1.7634,-1.7604,-1.7582,-1.7557,-1.7538,-1.7512,-1.7491,-1.747,-1.7447,-1.7421,-1.7411,-1.7399,-1.7387,-1.7362,-1.7356,-1.7362,-1.7332,-1.7331,-1.7341,-1.7347,-1.7355,-1.7352,-1.7343,-1.7342,-1.7342,0,-1.7687,-1.7661,-1.7629,-1.7593,-1.7582,-1.7566,-1.7536,-1.7515,-1.7485,-1.7471,-1.745,-1.7431,-1.7408,-1.7402,-1.737,-1.7375,-1.7362,-1.7348,-1.7347,-1.7343,-1.7336,-1.7343,-1.735,-1.735,-1.734,-1.7341,-1.7341,0,-1.7701,-1.7658,-1.7633,-1.7619,-1.7576,-1.7565,-1.7547,-1.7517,-1.75,-1.7474,-1.7463,-1.7435,-1.7419,-1.7398,-1.7372,-1.737,-1.7344,-1.7336,-1.7332,-1.7333,-1.7327,-1.7328,-1.7332,-1.7318,-1.7318,-1.7318,-1.7318,0,-1.7697,-1.7679,-1.764,-1.7624,-1.7604,-1.7575,-1.7556,-1.7535,-1.751,-1.7491,-1.7468,-1.7451,-1.7418,-1.7397,-1.7377,-1.7354,-1.7347,-1.7336,-1.7331,-1.7338,-1.7339,-1.7328,-1.7327,-1.7318,-1.7318,-1.7318,-1.7318,0,-1.7709,-1.7682,-1.7654,-1.7616,-1.7606,-1.7593,-1.7561,-1.7546,-1.7525,-1.7502,-1.7495,-1.7462,-1.7436,-1.7409,-1.7374,-1.736,-1.7339,-1.7332,-1.7349,-1.7346,-1.7345,-1.7345,-1.7342,-1.734,-1.7328,-1.7328,-1.7328,0,-1.7708,-1.7693,-1.7654,-1.7641,-1.7623,-1.76,-1.7584,-1.7556,-1.754,-1.7506,-1.7496,-1.7469,-1.7446,-1.7407,-1.738,-1.7353,-1.7345,-1.7346,-1.7341,-1.7349,-1.7346,-1.7347,-1.7346,-1.7347,-1.7347,-1.7348,-1.7348,0,-1.7709,-1.7697,-1.7673,-1.7646,-1.7627,-1.7604,-1.758,-1.757,-1.7538,-1.7521,-1.7495,-1.7478,-1.7443,-1.7417,-1.7388,-1.7369,-1.7354,-1.735,-1.7348,-1.7355,-1.7366,-1.736,-1.7353,-1.735,-1.7349,-1.7349,-1.7349,-1.7349,-1.7714,-1.7701,-1.7672,-1.7647,-1.7627,-1.7606,-1.759,-1.7568,-1.7546,-1.7516,-1.7501,-1.7476,-1.7449,-1.7408,-1.7391,-1.7371,-1.7366,-1.7362,-1.7362,-1.7361,-1.7364,-1.737,-1.7365,-1.7365,-1.7365,-1.7365,-1.7365,0,-1.7714,-1.7695,-1.7673,-1.7641,-1.7622,-1.761,-1.7584,-1.7569,-1.7547,-1.7523,-1.7501,-1.7473,-1.7448,-1.742,-1.7394,-1.7384,-1.7376,-1.7378,-1.7378,-1.7374,-1.7369,-1.7374,-1.7385,-1.7385,-1.7385,-1.7385,-1.7385,-1.7385,-1.7712,-1.7689,-1.7674,-1.7642,-1.7623,-1.7598,-1.7584,-1.7565,-1.7546,-1.7515,-1.7495,-1.7477,-1.7452,-1.7424,-1.7402,-1.7394,-1.7386,-1.739,-1.7381,-1.7376,-1.7375,-1.7373,-1.7377,-1.7388,-1.7388,-1.7387,-1.7387,-1.7387]},{"header":{"parameterUnit":"m.s-1","parameterCategory":1,"la1":30.2991,"la2":30.254,"lo1":-89.0895,"lo2":-89.0444,"dy":0.0017,"dx":0.0017,"nx":28,"ny":28,"refTime":"2025-04-27T03:00:00:Z","depth":0,"parameterNumber":3,"parameterNumberName":"V-component_of_WINDS"},"data":[0,0,0,0,0,0,0,0,0,0,0,0,0,0,0,0,0,0,0,0,0,0,0,0,0,0,0,0,0,0,0,0,0,0,0,0,0,0,0,0,0,0,0,0,0,0,0,0,0,0,0,0,0,0,0,0,0,0,3.7214,3.7213,0,3.7195,3.7195,3.7195,3.7215,3.7216,3.7217,3.7217,3.7192,3.7191,3.719,0,0,0,0,0,0,0,0,0,0,0,0,0,3.7262,3.7261,3.7214,3.7213,3.7213,3.7195,3.7195,3.7194,3.7215,3.7216,3.7217,3.7218,3.7193,3.7191,3.7189,0,0,0,0,0,0,0,0,0,0,0,0,0,3.7242,3.726,3.7214,3.7221,3.7222,3.7195,3.7195,3.7194,3.7215,3.7216,3.7217,3.7218,3.7193,3.7191,3.7189,3.7152,0,0,3.7183,3.7182,0,0,0,0,0,0,0,0,3.7243,3.724,3.722,3.7221,3.7221,3.7209,3.7203,3.718,3.7214,3.7217,3.7217,3.7219,3.7196,3.7194,3.7188,3.7151,3.715,3.7183,3.7181,3.718,3.718,0,0,0,0,0,0,0,3.7244,3.7241,3.7206,3.722,3.7221,3.7224,3.7222,3.7198,3.72,3.7217,3.7218,3.7216,3.7197,3.719,3.7187,3.715,3.7183,3.7181,3.7179,3.7179,3.7082,3.7081,0,0,0,0,0,0,3.7245,3.7242,3.7207,3.7206,3.7235,3.7222,3.722,3.7211,3.72,3.72,3.7215,3.7217,3.7193,3.719,3.7187,3.7143,3.718,3.7178,3.7177,3.7083,3.7082,3.708,0,0,0,0,0,0,3.7246,3.7242,3.7207,3.7224,3.722,3.722,3.721,3.721,3.7204,3.7199,3.7199,3.7208,3.7194,3.7189,3.7161,3.7142,3.7177,3.7175,3.7085,3.7083,3.7081,3.7055,0,0,0,0,0,0,3.7248,3.7242,3.7229,3.7224,3.7219,3.7184,3.7209,3.7209,3.72,3.7203,3.7193,3.7192,3.7194,3.7164,3.7159,3.714,3.7174,3.7086,3.7084,3.7082,3.7058,3.7053,3.7048,0,0,0,0,0,3.7249,3.7221,3.7229,3.7224,3.7203,3.7183,3.718,3.7185,3.7199,3.7185,3.7183,3.7192,3.7145,3.7161,3.7155,3.7136,3.7088,3.7085,3.7082,3.706,3.7054,3.7049,0,0,0,0,0,0,3.7222,3.7221,3.7229,3.7199,3.7191,3.7186,3.7169,3.7178,3.7164,3.7167,3.7172,3.7169,3.714,3.7135,3.7152,3.71,3.7119,3.7114,3.7104,3.7098,3.7093,3.7095,3.7172,0,0,0,0,0,3.7214,3.7199,3.7197,3.7171,3.7167,3.7169,3.716,3.7165,3.7156,3.7152,3.7148,3.7137,3.712,3.7109,3.7093,3.7057,3.7055,3.7041,3.7036,3.7032,3.7028,3.7009,3.7003,3.7071,3.7071,3.7071,0,0,3.7194,3.7191,3.7181,3.7165,3.716,3.7143,3.7166,3.7147,3.7134,3.7149,3.7122,3.7119,3.7107,3.7075,3.7061,3.707,3.7009,3.7029,3.7026,3.7024,3.7006,3.6999,3.6994,3.7069,3.7069,3.7069,0,0,3.715,3.7147,3.7125,3.7119,3.7112,3.7113,3.7108,3.7102,3.7101,3.7075,3.7086,3.707,3.7041,3.7033,3.7025,3.6979,3.6987,3.6973,3.6948,3.693,3.6924,3.692,3.6903,3.6897,3.6969,3.6969,3.6969,0,3.7126,3.7103,3.7111,3.7093,3.7085,3.71,3.7077,3.7071,3.7057,3.7051,3.7062,3.7027,3.702,3.6987,3.6976,3.6969,3.6962,3.6974,3.6925,3.692,3.6916,3.69,3.6894,3.6968,3.6968,3.6968,3.6968,0,3.7074,3.7058,3.7041,3.703,3.7021,3.6999,3.7003,3.6992,3.6998,3.6998,3.6971,3.6964,3.6948,3.694,3.6944,3.6907,3.6913,3.6925,3.6944,3.6908,3.6893,3.6887,3.6965,3.6966,3.6967,3.6967,0,0,3.7012,3.7008,3.7001,3.6997,3.699,3.6977,3.6956,3.6942,3.6933,3.6923,3.6905,3.688,3.6891,3.6882,3.6886,3.687,3.6834,3.6883,3.6882,3.6874,3.6792,3.6784,3.6777,3.684,3.6838,3.6838,3.6793,0,3.6968,3.6935,3.6942,3.6908,3.6893,3.6908,3.689,3.6883,3.6882,3.6868,3.6867,3.6849,3.6865,3.686,3.6844,3.6841,3.6817,3.6845,3.6822,3.6821,3.6824,3.6769,3.676,3.6719,3.6788,3.6787,3.6786,0,3.6912,3.6903,3.6869,3.6866,3.6859,3.6843,3.6831,3.6818,3.681,3.6811,3.6801,3.6808,3.6786,3.6806,3.6776,3.6794,3.6785,3.6782,3.6781,3.6778,3.6801,3.6765,3.6706,3.6699,3.6777,3.6778,3.6778,0,3.6871,3.685,3.6827,3.6822,3.6818,3.6806,3.6803,3.6797,3.6788,3.6777,3.6771,3.6756,3.6748,3.6736,3.6739,3.6753,3.6707,3.6727,3.6706,3.6706,3.6695,3.6696,3.6633,3.669,3.669,3.669,3.669,0,3.6821,3.6799,3.6808,3.6794,3.677,3.6778,3.6753,3.6751,3.6746,3.673,3.6741,3.6726,3.673,3.6715,3.6716,3.6691,3.6687,3.6686,3.6686,3.6685,3.6685,3.6679,3.6681,3.6688,3.6689,3.6689,3.6689,0,3.677,3.6775,3.6751,3.675,3.6749,3.6731,3.6729,3.6714,3.6715,3.6696,3.6691,3.6692,3.6675,3.6676,3.6656,3.6657,3.6625,3.6629,3.6629,3.663,3.6608,3.661,3.6539,3.653,3.6593,3.6592,3.6591,0,3.6738,3.6722,3.672,3.6711,3.6708,3.6694,3.6686,3.6693,3.6684,3.6674,3.6661,3.6645,3.6633,3.6604,3.6602,3.6586,3.659,3.6566,3.6587,3.6587,3.6589,3.659,3.6589,3.6562,3.6561,3.656,3.656,0,3.6681,3.6685,3.6673,3.6663,3.6654,3.6646,3.6638,3.663,3.6636,3.6625,3.6609,3.6599,3.658,3.6564,3.6549,3.6545,3.6553,3.6553,3.6548,3.6546,3.6546,3.6546,3.6617,3.6555,3.6555,3.6556,3.6556,3.6556,3.6638,3.6625,3.6622,3.6609,3.6605,3.6598,3.6585,3.6585,3.6572,3.6559,3.6563,3.6544,3.6537,3.6519,3.6513,3.6497,3.6505,3.6497,3.6495,3.6493,3.649,3.6549,3.6494,3.6495,3.6495,3.6495,3.6495,0,3.6582,3.6581,3.6569,3.656,3.6549,3.656,3.6553,3.6543,3.6527,3.6521,3.6509,3.649,3.6475,3.6472,3.6457,3.6445,3.6448,3.644,3.6441,3.644,3.6484,3.649,3.6438,3.6438,3.6438,3.6438,3.6438,3.6438,3.6551,3.6529,3.6533,3.6509,3.6507,3.6491,3.6486,3.6479,3.6474,3.6453,3.6441,3.644,3.6435,3.642,3.6406,3.6405,3.6399,3.639,3.639,3.6431,3.6437,3.6442,3.6448,3.6388,3.6388,3.6348,3.6347,3.6347]}]]